This demonstration page uses our WeatherBlox Daily Observations layout. Learn more.

Left ArrowRight Arrow

38.88101, -77.10428

Hourly Observations for June 1, 2021

Temp ( °F °C ) Dew Point ( °F °C ) Humidity (%) Winds ( mph kmh ) Pressure ( in mb ) Visibility ( mi km ) Precip ( " mm )
12:52 am 00:52 Mostly Clear 61 16.1 53 11.7 75 75 SSW 5 7 30.27 1025 10 16 N/A
1:52 am 01:52 Clear 61 16.1 52 11.1 72 72 N N/A 30.27 1025 10 16 N/A
2:52 am 02:52 Clear 59 15 52 11.1 78 78 SSW 3 6 30.28 1025 10 16 N/A
3:52 am 03:52 Mostly Cloudy 59 15 53 11.7 81 81 SW 5 7 30.28 1025 10 16 N/A
4:52 am 04:52 Mostly Cloudy 59 15 53 11.7 81 81 SW 5 7 30.27 1025 10 16 N/A
5:52 am 05:52 Mostly Cloudy 58 14.4 53 11.7 84 84 SW 5 7 30.28 1025 10 16 N/A
6:52 am 06:52 Mostly Cloudy 60 15.6 55 12.8 84 84 S 5 7 30.30 1026 10 16 N/A
7:52 am 07:52 Cloudy 62 16.7 55 12.8 78 78 S 9 15 30.30 1026 10 16 N/A
8:52 am 08:52 Mostly Cloudy 66 18.9 56 13.3 70 70 S 9 15 30.30 1026 10 16 N/A
9:52 am 09:52 Mostly Cloudy 68 20 57 13.9 68 68 S 10 17 30.30 1026 10 16 N/A
10:52 am 10:52 Mostly Cloudy 72 22.2 58 14.4 61 61 S 12 19 30.28 1026 10 16 N/A
11:52 am 11:52 Mostly Cloudy 74 23.3 57 13.9 56 56 SSE 10 17 30.27 1025 10 16 N/A
12:52 pm 12:52 Mostly Cloudy 76 24.4 59 15 56 56 S 15 24 30.25 1024 10 16 N/A
1:52 pm 13:52 Cloudy 76 24.4 58 14.4 54 54 S 12 19 30.24 1024 10 16 N/A
2:52 pm 14:52 Cloudy 77 25 60 15.6 56 56 S 12 19 30.22 1024 10 16 N/A
3:52 pm 15:52 Cloudy 76 24.4 59 15 56 56 S 10 17 30.21 1023 10 16 N/A
4:52 pm 16:52 Cloudy 76 24.4 61 16.1 60 60 S 12 19 30.21 1023 10 16 N/A
5:52 pm 17:52 Cloudy 75 23.9 60 15.6 60 60 S 10 17 30.21 1023 9 14 N/A
6:52 pm 18:52 Cloudy 74 23.3 60 15.6 62 62 S 9 15 30.20 1023 10 16 N/A
7:52 pm 19:52 Cloudy 73 22.8 59 15 62 62 S 8 13 30.22 1023 10 16 N/A
8:52 pm 20:52 Cloudy 71 21.7 59 15 66 66 SSE 7 11 30.21 1023 10 16 N/A
9:52 pm 21:52 Cloudy 69 20.6 58 14.4 68 68 S 10 17 30.23 1024 10 16 N/A
10:52 pm 22:52 Cloudy 68 20 58 14.4 70 70 SSE 10 17 30.23 1024 10 16 N/A
11:52 pm 23:52 Cloudy 67 19.4 58 14.4 73 73 S 9 15 30.23 1024 10 16 N/A

Powered by AerisWeather